Time,TemperatureF,DewpointF,PressureIn,WindDirection,WindDirectionDegrees,WindSpeedMPH,WindSpeedGustMPH,Humidity,HourlyPrecipIn,Conditions,Clouds,dailyrainin,SoftwareType,DateUTC
2013-12-29 00:11:00,35.6,29.7,29.89,SSE,157,3.7,-999.0,79,-99.99,,,0.03,Acu-Link.com,2013-12-29 05:11:00,
2013-12-29 00:26:00,35.4,29.5,29.85,SSE,157,4.7,-999.0,79,-99.99,,,0.04,Acu-Link.com,2013-12-29 05:26:00,
2013-12-29 00:42:00,35.4,29.5,29.84,SE,135,5.3,-999.0,79,-99.99,,,0.05,Acu-Link.com,2013-12-29 05:42:00,
2013-12-29 00:57:00,35.1,29.3,29.84,SE,135,5.8,-999.0,79,-99.99,,,0.12,Acu-Link.com,2013-12-29 05:57:00,
2013-12-29 01:12:00,35.1,29.3,29.84,West,270,2.2,-999.0,79,-99.99,,,0.16,Acu-Link.com,2013-12-29 06:12:00,
2013-12-29 01:28:00,35.4,29.5,29.83,SE,135,3.7,-999.0,79,-99.99,,,0.26,Acu-Link.com,2013-12-29 06:28:00,
2013-12-29 01:43:00,35.4,29.5,29.83,SE,135,2.2,-999.0,79,-99.99,,,0.34,Acu-Link.com,2013-12-29 06:43:00,
2013-12-29 01:58:00,35.6,29.7,29.80,SE,135,2.7,-999.0,79,-99.99,,,0.44,Acu-Link.com,2013-12-29 06:58:00,
2013-12-29 02:13:00,35.4,29.5,29.80,ESE,112,0.0,-999.0,79,-99.99,,,0.49,Acu-Link.com,2013-12-29 07:13:00,
2013-12-29 02:29:00,35.1,29.3,29.79,ESE,112,3.7,-999.0,79,-99.99,,,0.52,Acu-Link.com,2013-12-29 07:29:00,
2013-12-29 02:44:00,35.2,29.4,29.79,SE,135,2.7,-999.0,79,-99.99,,,0.53,Acu-Link.com,2013-12-29 07:44:00,
2013-12-29 02:59:00,35.2,29.4,29.79,ESE,112,2.7,-999.0,79,-99.99,,,0.56,Acu-Link.com,2013-12-29 07:59:00,
2013-12-29 03:14:00,35.2,29.4,29.75,SE,135,4.2,-999.0,79,-99.99,,,0.62,Acu-Link.com,2013-12-29 08:14:00,
2013-12-29 03:30:00,35.2,29.4,29.76,NNE,22,0.0,-999.0,79,-99.99,,,0.66,Acu-Link.com,2013-12-29 08:30:00,
2013-12-29 03:45:00,35.2,29.4,29.73,SSE,157,2.7,-999.0,79,-99.99,,,0.72,Acu-Link.com,2013-12-29 08:45:00,
2013-12-29 04:00:00,35.2,29.4,29.74,SE,135,1.7,-999.0,79,-99.99,,,0.73,Acu-Link.com,2013-12-29 09:00:00,
2013-12-29 04:15:00,35.2,29.4,29.73,NNW,337,1.7,-999.0,79,-99.99,,,0.90,Acu-Link.com,2013-12-29 09:15:00,
2013-12-29 04:31:00,35.2,29.4,29.72,WNW,292,2.2,-999.0,79,-99.99,,,0.95,Acu-Link.com,2013-12-29 09:31:00,
2013-12-29 04:46:00,35.2,29.4,29.69,NW,315,2.2,-999.0,79,-99.99,,,1.00,Acu-Link.com,2013-12-29 09:46:00,
2013-12-29 05:01:00,35.4,29.5,29.68,SE,135,0.0,-999.0,79,-99.99,,,1.05,Acu-Link.com,2013-12-29 10:01:00,
2013-12-29 05:16:00,35.4,29.5,29.68,ESE,112,0.0,-999.0,79,-99.99,,,1.08,Acu-Link.com,2013-12-29 10:16:00,
2013-12-29 05:31:00,35.4,29.5,29.68,WNW,292,3.7,-999.0,79,-99.99,,,1.13,Acu-Link.com,2013-12-29 10:31:00,
2013-12-29 05:46:00,35.4,29.5,29.66,West,270,0.0,-999.0,79,-99.99,,,1.22,Acu-Link.com,2013-12-29 10:46:00,
2013-12-29 06:01:00,35.8,29.9,29.64,SSE,157,0.0,-999.0,79,-99.99,,,1.23,Acu-Link.com,2013-12-29 11:01:00,
2013-12-29 06:17:00,36.3,30.4,29.64,SSE,157,0.0,-999.0,79,-99.99,,,1.24,Acu-Link.com,2013-12-29 11:17:00,
2013-12-29 06:32:00,36.7,30.8,29.65,WNW,292,1.1,-999.0,79,-99.99,,,1.27,Acu-Link.com,2013-12-29 11:32:00,
2013-12-29 06:47:00,37.6,31.7,29.65,SE,135,0.0,-999.0,79,-99.99,,,1.28,Acu-Link.com,2013-12-29 11:47:00,
2013-12-29 07:03:00,38.3,32.4,29.64,ESE,112,0.0,-999.0,79,-99.99,,,1.29,Acu-Link.com,2013-12-29 12:03:00,
2013-12-29 07:18:00,38.5,32.6,29.65,NW,315,0.0,-999.0,79,-99.99,,,1.29,Acu-Link.com,2013-12-29 12:18:00,
2013-12-29 07:33:00,37.0,31.1,29.63,WNW,292,0.0,-999.0,79,-99.99,,,1.30,Acu-Link.com,2013-12-29 12:33:00,
2013-12-29 07:49:00,38.3,32.4,29.63,ESE,112,0.0,-999.0,79,-99.99,,,1.30,Acu-Link.com,2013-12-29 12:49:00,
2013-12-29 08:19:00,38.3,32.4,29.60,WNW,292,4.7,-999.0,79,-99.99,,,1.31,Acu-Link.com,2013-12-29 13:19:00,
2013-12-29 08:35:00,38.3,32.4,29.62,WNW,292,3.7,-999.0,79,-99.99,,,1.31,Acu-Link.com,2013-12-29 13:35:00,
2013-12-29 08:50:00,37.9,32.0,29.62,WNW,292,4.7,-999.0,79,-99.99,,,1.31,Acu-Link.com,2013-12-29 13:50:00,
2013-12-29 09:05:00,37.9,32.0,29.62,WNW,292,4.2,-999.0,79,-99.99,,,1.31,Acu-Link.com,2013-12-29 14:05:00,
2013-12-29 09:20:00,40.3,34.3,29.63,NW,315,3.7,-999.0,79,-99.99,,,1.31,Acu-Link.com,2013-12-29 14:20:00,
2013-12-29 09:36:00,39.9,33.9,29.64,WNW,292,3.2,-999.0,79,-99.99,,,1.31,Acu-Link.com,2013-12-29 14:36:00,
2013-12-29 09:51:00,40.5,34.5,29.64,WNW,292,5.3,-999.0,79,-99.99,,,1.31,Acu-Link.com,2013-12-29 14:51:00,
2013-12-29 10:06:00,41.5,35.5,29.64,WNW,292,4.2,-999.0,79,-99.99,,,1.31,Acu-Link.com,2013-12-29 15:06:00,
2013-12-29 10:21:00,42.6,36.6,29.64,NNW,337,6.3,-999.0,79,-99.99,,,1.31,Acu-Link.com,2013-12-29 15:21:00,
2013-12-29 10:36:00,42.8,36.7,29.64,NW,315,6.8,-999.0,79,-99.99,,,1.31,Acu-Link.com,2013-12-29 15:36:00,
2013-12-29 10:52:00,43.5,37.4,29.63,North,0,4.2,-999.0,79,-99.99,,,1.31,Acu-Link.com,2013-12-29 15:52:00,
2013-12-29 11:07:00,43.7,37.6,29.63,NW,315,5.8,-999.0,79,-99.99,,,1.31,Acu-Link.com,2013-12-29 16:07:00,
2013-12-29 11:22:00,43.2,37.1,29.64,NNW,337,5.8,-999.0,79,-99.99,,,1.31,Acu-Link.com,2013-12-29 16:22:00,
2013-12-29 11:37:00,43.7,37.6,29.64,NNW,337,7.8,-999.0,79,-99.99,,,1.31,Acu-Link.com,2013-12-29 16:37:00,
2013-12-29 11:52:00,44.1,38.0,29.63,ENE,67,6.8,-999.0,79,-99.99,,,1.31,Acu-Link.com,2013-12-29 16:52:00,
2013-12-29 12:08:00,45.7,39.6,29.65,NNW,337,4.2,-999.0,79,-99.99,,,1.31,Acu-Link.com,2013-12-29 17:08:00,
2013-12-29 12:23:00,46.8,40.6,29.64,NNW,337,6.3,-999.0,79,-99.99,,,1.31,Acu-Link.com,2013-12-29 17:23:00,
2013-12-29 12:38:00,48.2,42.0,29.63,WNW,292,4.2,-999.0,79,-99.99,,,1.31,Acu-Link.com,2013-12-29 17:38:00,
2013-12-29 12:53:00,49.3,43.1,29.62,NW,315,4.7,-999.0,79,-99.99,,,1.31,Acu-Link.com,2013-12-29 17:53:00,
2013-12-29 13:08:00,51.8,45.5,29.62,NW,315,3.7,-999.0,79,-99.99,,,1.31,Acu-Link.com,2013-12-29 18:08:00,
2013-12-29 13:24:00,54.1,47.7,29.63,NW,315,3.7,-999.0,79,-99.99,,,1.31,Acu-Link.com,2013-12-29 18:24:00,
2013-12-29 13:39:00,54.9,48.5,29.63,North,0,2.2,-999.0,79,-99.99,,,1.31,Acu-Link.com,2013-12-29 18:39:00,
2013-12-29 13:54:00,55.2,48.8,29.62,NW,315,5.8,-999.0,79,-99.99,,,1.31,Acu-Link.com,2013-12-29 18:54:00,
2013-12-29 14:09:00,55.4,49.0,29.64,WNW,292,3.2,-999.0,79,-99.99,,,1.31,Acu-Link.com,2013-12-29 19:09:00,
2013-12-29 14:25:00,56.7,50.3,29.63,North,0,2.7,-999.0,79,-99.99,,,1.31,Acu-Link.com,2013-12-29 19:25:00,
2013-12-29 14:40:00,56.1,49.7,29.64,North,0,2.7,-999.0,79,-99.99,,,1.31,Acu-Link.com,2013-12-29 19:40:00,
2013-12-29 14:55:00,53.4,47.1,29.62,NNW,337,6.8,-999.0,79,-99.99,,,1.31,Acu-Link.com,2013-12-29 19:55:00,
2013-12-29 15:11:00,51.1,44.8,29.63,NW,315,8.9,-999.0,79,-99.99,,,1.31,Acu-Link.com,2013-12-29 20:11:00,
2013-12-29 15:26:00,48.7,42.5,29.64,NNW,337,6.8,-999.0,79,-99.99,,,1.31,Acu-Link.com,2013-12-29 20:26:00,
2013-12-29 15:41:00,49.3,43.1,29.63,NW,315,4.7,-999.0,79,-99.99,,,1.31,Acu-Link.com,2013-12-29 20:41:00,
2013-12-29 15:56:00,48.2,42.0,29.65,NW,315,3.2,-999.0,79,-99.99,,,1.31,Acu-Link.com,2013-12-29 20:56:00,
2013-12-29 16:11:00,45.9,39.8,29.65,NNW,337,6.3,-999.0,79,-99.99,,,1.31,Acu-Link.com,2013-12-29 21:11:00,
2013-12-29 16:27:00,44.8,38.7,29.66,ENE,67,6.8,-999.0,79,-99.99,,,1.31,Acu-Link.com,2013-12-29 21:27:00,
2013-12-29 16:42:00,44.1,38.0,29.66,NW,315,5.3,-999.0,79,-99.99,,,1.31,Acu-Link.com,2013-12-29 21:42:00,
2013-12-29 16:57:00,43.3,37.2,29.68,NNW,337,0.0,-999.0,79,-99.99,,,1.31,Acu-Link.com,2013-12-29 21:57:00,
2013-12-29 17:12:00,42.8,36.7,29.68,West,270,4.2,-999.0,79,-99.99,,,1.31,Acu-Link.com,2013-12-29 22:12:00,
2013-12-29 17:27:00,42.3,36.3,29.68,NW,315,4.2,-999.0,79,-99.99,,,1.31,Acu-Link.com,2013-12-29 22:27:00,
2013-12-29 17:42:00,41.7,35.7,29.68,NNW,337,6.8,-999.0,79,-99.99,,,1.31,Acu-Link.com,2013-12-29 22:42:00,
2013-12-29 17:58:00,41.5,35.5,29.68,NNW,337,7.3,-999.0,79,-99.99,,,1.31,Acu-Link.com,2013-12-29 22:58:00,
2013-12-29 18:13:00,41.4,35.4,29.70,NW,315,6.3,-999.0,79,-99.99,,,1.31,Acu-Link.com,2013-12-29 23:13:00,
2013-12-29 18:28:00,41.2,35.2,29.71,NW,315,7.3,-999.0,79,-99.99,,,1.31,Acu-Link.com,2013-12-29 23:28:00,
2013-12-29 18:43:00,40.8,34.8,29.70,North,0,5.8,-999.0,79,-99.99,,,1.31,Acu-Link.com,2013-12-29 23:43:00,
2013-12-29 18:58:00,40.6,34.6,29.71,NNW,337,5.3,-999.0,79,-99.99,,,1.31,Acu-Link.com,2013-12-29 23:58:00,
2013-12-29 19:13:00,40.3,34.3,29.71,WNW,292,4.2,-999.0,79,-99.99,,,1.31,Acu-Link.com,2013-12-30 00:13:00,
2013-12-29 19:28:00,40.1,34.1,29.72,NE,45,4.7,-999.0,79,-99.99,,,1.31,Acu-Link.com,2013-12-30 00:28:00,
2013-12-29 19:43:00,39.7,33.7,29.72,West,270,4.2,-999.0,79,-99.99,,,1.31,Acu-Link.com,2013-12-30 00:43:00,
2013-12-29 19:59:00,39.7,33.7,29.71,NW,315,8.3,-999.0,79,-99.99,,,1.31,Acu-Link.com,2013-12-30 00:59:00,
2013-12-29 20:14:00,39.9,33.9,29.73,NNW,337,11.4,-999.0,79,-99.99,,,1.31,Acu-Link.com,2013-12-30 01:14:00,
2013-12-29 20:29:00,39.7,33.7,29.72,NNW,337,10.9,-999.0,79,-99.99,,,1.31,Acu-Link.com,2013-12-30 01:29:00,
2013-12-29 20:44:00,39.6,33.6,29.73,NNW,337,11.4,-999.0,79,-99.99,,,1.31,Acu-Link.com,2013-12-30 01:44:00,
2013-12-29 20:59:00,39.2,33.2,29.73,NW,315,10.4,-999.0,79,-99.99,,,1.31,Acu-Link.com,2013-12-30 01:59:00,
2013-12-29 21:14:00,39.7,33.7,29.73,NW,315,9.4,-999.0,79,-99.99,,,1.31,Acu-Link.com,2013-12-30 02:14:00,
2013-12-29 21:29:00,39.0,33.1,29.75,NNW,337,9.4,-999.0,79,-99.99,,,1.31,Acu-Link.com,2013-12-30 02:29:00,
2013-12-29 21:44:00,39.0,33.1,29.75,NW,315,6.8,-999.0,79,-99.99,,,1.31,Acu-Link.com,2013-12-30 02:44:00,
2013-12-29 21:59:00,38.8,32.9,29.76,NW,315,9.4,-999.0,79,-99.99,,,1.31,Acu-Link.com,2013-12-30 02:59:00,
2013-12-29 22:14:00,38.5,32.6,29.77,NW,315,9.9,-999.0,79,-99.99,,,1.31,Acu-Link.com,2013-12-30 03:14:00,
2013-12-29 22:29:00,36.9,31.0,29.76,WNW,292,9.9,-999.0,79,-99.99,,,1.31,Acu-Link.com,2013-12-30 03:29:00,
2013-12-29 22:44:00,37.9,32.0,29.77,West,270,9.4,-999.0,79,-99.99,,,1.31,Acu-Link.com,2013-12-30 03:44:00,
2013-12-29 22:59:00,37.9,32.0,29.79,NNW,337,8.3,-999.0,79,-99.99,,,1.31,Acu-Link.com,2013-12-30 03:59:00,
2013-12-29 23:14:00,37.8,31.9,29.78,NNW,337,10.4,-999.0,79,-99.99,,,1.31,Acu-Link.com,2013-12-30 04:14:00,
2013-12-29 23:29:00,37.6,31.7,29.79,NW,315,10.9,-999.0,79,-99.99,,,1.31,Acu-Link.com,2013-12-30 04:29:00,
2013-12-29 23:44:00,37.9,32.0,29.77,NW,315,10.9,-999.0,79,-99.99,,,1.31,Acu-Link.com,2013-12-30 04:44:00,
2013-12-29 23:59:00,37.2,31.3,29.78,NW,315,8.9,-999.0,79,-99.99,,,1.31,Acu-Link.com,2013-12-30 04:59:00,